When you browse on this site, cookies collect data to enhance your experience and personalize the content and advertising you see.
Visit our Privacy Policy to learn more. By continuing to use the site, you agree to this use of cookies and data.
  • In Romania
  • List of Countries
  • For 7 days
  • Water Temperature
  • Satellite Maps
  • Weather Map
  • Weather Widgets
  • user-avatar
    Login

    Hourly Weather Brashov

    Today, 19 May, Sunday

    Time Temperature Precipitation Wind Pressure Humidity
    00:00 +11°C° 0 mm 1 mps 680 mmHg 89%
    01:00 +11°C° 0 mm 1 mps 680 mmHg 89%
    02:00 +10°C° 0 mm 1 mps 680 mmHg 90%
    03:00 +10°C° 0 mm 1 mps 680 mmHg 89%
    04:00 +10°C° 0 mm 1 mps 680 mmHg 87%
    05:00 +10°C° 0 mm 1 mps 680 mmHg 86%
    06:00 +12°C° 0 mm 1 mps 681 mmHg 78%
    07:00 +15°C° 0 mm 1 mps 681 mmHg 70%
    08:00 +17°C° 0 mm 0 mps 682 mmHg 62%
    09:00 +21°C° 0 mm 1 mps 682 mmHg 55%
    10:00 +22°C° 0 mm 1 mps 683 mmHg 48%
    11:00 +24°C° 0 mm 1 mps 683 mmHg 41%
    12:00 +25°C° 0 mm 1 mps 683 mmHg 41%
    13:00 +25°C° 0 mm 2 mps 683 mmHg 40%
    14:00 +26°C° 0 mm 2 mps 683 mmHg 39%
    15:00 +25°C° 0 mm 2 mps 682 mmHg 43%
    16:00 +24°C° 0 mm 2 mps 682 mmHg 47%
    17:00 +24°C° 0 mm 2 mps 682 mmHg 50%
    18:00 +20°C° 0 mm 2 mps 681 mmHg 60%
    19:00 +18°C° 0 mm 2 mps 681 mmHg 70%
    20:00 +16°C° 0 mm 2 mps 680 mmHg 79%
    21:00 +15°C° 0.2 mm 2 mps 680 mmHg 81%
    22:00 +14°C° 0.2 mm 2 mps 680 mmHg 83%
    23:00 +14°C° 0.2 mm 2 mps 680 mmHg 85%

    Tomorrow, 20 May, Monday

    Time Temperature Precipitation Wind Pressure Humidity
    00:00 +14°C° 0.1 mm 2 mps 680 mmHg 87%
    01:00 +13°C° 0.1 mm 2 mps 680 mmHg 88%
    02:00 +13°C° 0.1 mm 2 mps 680 mmHg 90%
    03:00 +13°C° 0 mm 2 mps 680 mmHg 90%
    04:00 +12°C° 0 mm 2 mps 679 mmHg 91%
    05:00 +12°C° 0 mm 2 mps 679 mmHg 92%
    06:00 +14°C° 0 mm 2 mps 680 mmHg 82%
    07:00 +16°C° 0 mm 2 mps 681 mmHg 73%
    08:00 +19°C° 0 mm 2 mps 681 mmHg 63%
    09:00 +20°C° 0 mm 3 mps 682 mmHg 56%
    10:00 +21°C° 0 mm 3 mps 682 mmHg 50%
    11:00 +24°C° 0 mm 3 mps 682 mmHg 43%
    12:00 +24°C° 0.1 mm 3 mps 682 mmHg 45%
    13:00 +24°C° 0.1 mm 3 mps 682 mmHg 48%
    14:00 +23°C° 0.1 mm 4 mps 682 mmHg 50%
    15:00 +22°C° 0.3 mm 3 mps 682 mmHg 56%
    16:00 +21°C° 0.3 mm 3 mps 681 mmHg 61%
    17:00 +21°C° 0.3 mm 3 mps 681 mmHg 67%
    18:00 +18°C° 0.3 mm 2 mps 681 mmHg 74%
    19:00 +16°C° 0.3 mm 2 mps 680 mmHg 82%
    20:00 +14°C° 0.3 mm 1 mps 680 mmHg 89%
    21:00 +14°C° 0.4 mm 1 mps 680 mmHg 90%
    22:00 +13°C° 0.4 mm 1 mps 680 mmHg 90%
    23:00 +13°C° 0.4 mm 1 mps 680 mmHg 91%

    Day after tomorrow, 21 May, Tuesday

    Time Temperature Precipitation Wind Pressure Humidity
    00:00 +12°C° 0.7 mm 1 mps 680 mmHg 92%
    01:00 +12°C° 0.7 mm 1 mps 680 mmHg 92%
    02:00 +12°C° 0.7 mm 1 mps 680 mmHg 93%
    03:00 +11°C° 0.1 mm 1 mps 680 mmHg 93%
    04:00 +11°C° 0.1 mm 1 mps 680 mmHg 92%
    05:00 +10°C° 0.1 mm 1 mps 680 mmHg 92%
    06:00 +12°C° 0 mm 1 mps 680 mmHg 85%
    07:00 +14°C° 0 mm 1 mps 681 mmHg 79%
    08:00 +15°C° 0 mm 1 mps 682 mmHg 73%
    09:00 +17°C° 0.1 mm 2 mps 682 mmHg 66%
    10:00 +18°C° 0.1 mm 2 mps 682 mmHg 59%
    11:00 +19°C° 0.1 mm 2 mps 683 mmHg 52%
    12:00 +19°C° 0.3 mm 2 mps 683 mmHg 53%
    13:00 +19°C° 0.3 mm 3 mps 683 mmHg 54%
    14:00 +19°C° 0.3 mm 3 mps 683 mmHg 54%
    15:00 +18°C° 0.8 mm 2 mps 682 mmHg 58%
    16:00 +18°C° 0.8 mm 2 mps 682 mmHg 62%
    17:00 +17°C° 0.8 mm 2 mps 682 mmHg 66%
    18:00 +15°C° 0.7 mm 1 mps 682 mmHg 73%
    19:00 +13°C° 0.7 mm 1 mps 681 mmHg 79%
    20:00 +11°C° 0.7 mm 1 mps 681 mmHg 86%
    21:00 +10°C° 0 mm 1 mps 681 mmHg 88%
    22:00 +10°C° 0 mm 1 mps 681 mmHg 90%
    23:00 +9°C° 0 mm 1 mps 681 mmHg 91%

    22 May, Wednesday

    Time Temperature Precipitation Wind Pressure Humidity
    00:00 +8°C° 0 mm 1 mps 681 mmHg 92%
    01:00 +8°C° 0 mm 1 mps 681 mmHg 92%
    02:00 +8°C° 0 mm 1 mps 681 mmHg 92%
    03:00 +7°C° 0 mm 1 mps 681 mmHg 92%
    04:00 +7°C° 0 mm 1 mps 682 mmHg 92%
    05:00 +7°C° 0 mm 1 mps 682 mmHg 91%
    06:00 +8°C° 0 mm 1 mps 682 mmHg 86%
    07:00 +10°C° 0 mm 1 mps 682 mmHg 81%
    08:00 +12°C° 0 mm 1 mps 683 mmHg 76%
    09:00 +14°C° 0 mm 2 mps 683 mmHg 68%
    10:00 +16°C° 0 mm 2 mps 684 mmHg 61%
    11:00 +17°C° 0 mm 2 mps 684 mmHg 54%
    12:00 +17°C° 0.1 mm 2 mps 684 mmHg 58%
    13:00 +17°C° 0.1 mm 2 mps 684 mmHg 61%
    14:00 +17°C° 0.1 mm 2 mps 683 mmHg 65%
    15:00 +16°C° 0.1 mm 2 mps 683 mmHg 67%
    16:00 +16°C° 0.1 mm 2 mps 683 mmHg 70%
    17:00 +16°C° 0.1 mm 2 mps 683 mmHg 72%
    18:00 +14°C° 0 mm 2 mps 683 mmHg 79%
    19:00 +12°C° 0 mm 2 mps 682 mmHg 86%
    20:00 +11°C° 0 mm 1 mps 682 mmHg 93%
    21:00 +10°C° 0 mm 1 mps 682 mmHg 94%
    22:00 +9°C° 0 mm 1 mps 682 mmHg 94%
    23:00 +9°C° 0 mm 1 mps 682 mmHg 94%

    23 May, Thursday

    Time Temperature Precipitation Wind Pressure Humidity
    00:00 +8°C° 0 mm 1 mps 682 mmHg 94%
    01:00 +8°C° 0 mm 1 mps 682 mmHg 94%
    02:00 +8°C° 0 mm 1 mps 682 mmHg 94%
    03:00 +8°C° 0 mm 1 mps 682 mmHg 94%
    04:00 +8°C° 0 mm 1 mps 682 mmHg 94%
    05:00 +8°C° 0 mm 1 mps 682 mmHg 94%
    06:00 +10°C° 0 mm 1 mps 682 mmHg 89%
    07:00 +12°C° 0 mm 1 mps 683 mmHg 84%
    08:00 +14°C° 0 mm 1 mps 683 mmHg 79%
    09:00 +15°C° 0.3 mm 1 mps 683 mmHg 77%
    10:00 +16°C° 0.3 mm 1 mps 684 mmHg 74%
    11:00 +17°C° 0.3 mm 2 mps 684 mmHg 72%
    12:00 +19°C° 1 mm 1 mps 683 mmHg 71%
    13:00 +19°C° 1 mm 1 mps 683 mmHg 70%
    14:00 +19°C° 1 mm 1 mps 683 mmHg 69%
    15:00 +19°C° 0.9 mm 1 mps 683 mmHg 70%
    16:00 +19°C° 0.9 mm 1 mps 683 mmHg 71%
    17:00 +19°C° 0.9 mm 1 mps 682 mmHg 72%
    18:00 +16°C° 0.8 mm 1 mps 682 mmHg 79%
    19:00 +14°C° 0.8 mm 1 mps 682 mmHg 85%
    20:00 +13°C° 0.8 mm 1 mps 682 mmHg 92%
    21:00 +12°C° 0.4 mm 1 mps 682 mmHg 93%
    22:00 +12°C° 0.4 mm 1 mps 682 mmHg 93%
    23:00 +11°C° 0.4 mm 1 mps 682 mmHg 94%

    24 May, Friday

    Time Temperature Precipitation Wind Pressure Humidity
    00:00 +11°C° 0 mm 1 mps 681 mmHg 94%
    01:00 +10°C° 0 mm 1 mps 681 mmHg 95%
    02:00 +10°C° 0 mm 1 mps 681 mmHg 95%
    03:00 +9°C° 0 mm 0 mps 681 mmHg 95%
    04:00 +8°C° 0 mm 0 mps 681 mmHg 96%
    05:00 +8°C° 0 mm 0 mps 681 mmHg 96%
    06:00 +10°C° 0.1 mm 0 mps 682 mmHg 92%
    07:00 +11°C° 0.1 mm 0 mps 682 mmHg 89%
    08:00 +13°C° 0.1 mm 0 mps 682 mmHg 86%
    09:00 +14°C° 0.7 mm 0 mps 682 mmHg 82%
    10:00 +15°C° 0.7 mm 1 mps 682 mmHg 79%
    11:00 +16°C° 0.7 mm 1 mps 682 mmHg 75%
    12:00 +16°C° 0.8 mm 0 mps 682 mmHg 74%
    13:00 +16°C° 0.8 mm 0 mps 682 mmHg 73%
    14:00 +16°C° 0.8 mm 0 mps 682 mmHg 72%
    15:00 +16°C° 0.5 mm 0 mps 681 mmHg 73%
    16:00 +18°C° 0.5 mm 1 mps 681 mmHg 73%
    17:00 +18°C° 0.5 mm 1 mps 681 mmHg 73%
    18:00 +15°C° 0.3 mm 1 mps 681 mmHg 78%
    19:00 +12°C° 0.3 mm 0 mps 680 mmHg 84%
    20:00 +11°C° 0.3 mm 0 mps 680 mmHg 89%
    21:00 +10°C° 0 mm 0 mps 680 mmHg 90%
    22:00 +9°C° 0 mm 0 mps 680 mmHg 91%
    23:00 +10°C° 0 mm 1 mps 680 mmHg 92%
    Show more